Location: Bydgoszcz
(53.1640°N, 17.9142°E)
Time: 09:20:51
(UTC+02:00)

PCSat - Pass Details

Date: 23 April 2024
Orbit: 783 x 792 km, 67.1° (Epoch: 24 May)

Event Time Altitude Azimuth Distance (km) Brightness Sun altitude
Rises 22:22:22 0° 267° (W) 3,284 13.3 -17.1°
Reaches altitude 10° 22:25:11 10° 281° (W) 2,359 12.7 -17.3°
Maximum altitude 22:29:39 26° 337° (NNW) 1,541 11.9 -17.7°
Drops below altitude 10° 22:34:09 10° 32° (NNE) 2,369 12.3 -18.1°
Sets 22:36:59 0° 46° (NE) 3,301 12.9 -18.3°
